This is the latest recevied weather packets stored in our database for station/object AJ7DN. If no packets are shown the sender has not sent any weather packets the latest 10 day(s).
| Time | Temp. | Humidity | Pressure | Rain* | Wind** | Luminosity | Snow |
|---|---|---|---|---|---|---|---|
| 1777671621 | 22.78° C | 54% | 1019.7 hPa | 0 mm | - | 497 W/m² | - |
| 1777671318 | 22.78° C | 55% | 1019.7 hPa | 0 mm | - | 404 W/m² | - |
| 1777671015 | 22.78° C | 55% | 1019.8 hPa | 0 mm | - | 509 W/m² | - |
| 1777670710 | 22.22° C | 55% | 1020 hPa | 0 mm | - | 511 W/m² | - |
| 1777670408 | 22.78° C | 56% | 1019.9 hPa | 0 mm | - | 498 W/m² | - |
| 1777670104 | 22.22° C | 56% | 1020.1 hPa | 0 mm | - | 517 W/m² | - |
| 1777669803 | 22.22° C | 57% | 1020 hPa | 0 mm | - | 532 W/m² | - |
| 1777669498 | 22.78° C | 54% | 1020.2 hPa | 0 mm | - | 509 W/m² | - |
| 1777669195 | 22.78° C | 57% | 1020 hPa | 0 mm | - | 501 W/m² | - |
| 1777668892 | 22.22° C | 56% | 1020.3 hPa | 0 mm | - | 515 W/m² | - |
| 1777668590 | 22.22° C | 56% | 1020.2 hPa | 0 mm | - | 615 W/m² | - |
| 1777668285 | 22.22° C | 57% | 1020.3 hPa | 0 mm | - | 622 W/m² | - |
| 1777667982 | 21.67° C | 58% | 1020.5 hPa | 0 mm | - | 594 W/m² | - |
| 1777667678 | 21.67° C | 57% | 1020.5 hPa | 0 mm | - | 379 W/m² | - |
| 1777667376 | 21.11° C | 57% | 1020.7 hPa | 0 mm | - | 507 W/m² | - |
| 1777667073 | 21.11° C | 59% | 1020.6 hPa | 0 mm | - | 567 W/m² | - |
| 1777666769 | 21.11° C | 58% | 1020.6 hPa | 0 mm | - | 588 W/m² | - |
| 1777666466 | 21.67° C | 56% | 1020.7 hPa | 0 mm | - | 530 W/m² | - |
| 1777666163 | 21.11° C | 58% | 1020.9 hPa | 0 mm | - | 504 W/m² | - |
| 1777665860 | 20.56° C | 60% | 1020.8 hPa | 0 mm | - | 343 W/m² | - |
| 1777665558 | 20.56° C | 61% | 1020.9 hPa | 0 mm | - | 666 W/m² | - |
| 1777665254 | 21.11° C | 59% | 1021 hPa | 0 mm | - | 657 W/m² | - |
| 1777664950 | 20.56° C | 61% | 1021 hPa | 0 mm | - | 653 W/m² | - |
| 1777664646 | 20° C | 62% | 1021 hPa | 0 mm | - | 628 W/m² | - |
| 1777664342 | 20° C | 62% | 1020.9 hPa | 0 mm | - | 294 W/m² | - |
* Rain latest hour (hover to see other rain measurements)
** Current wind speed in m/s (hover to see current wind gust speed)